Terug naar catalogus

STARLINK-34946

ActiefCommunicatieVLEO
NORAD 65367·PAYLOAD·🇺🇸 United States

Gelanceerd Aug 28, 2025 vanaf Cape Canaveral Space Force Station

Loading…

Volgende Passages (komende 24 uur)

TLE

VersSource: CelesTrak SupGP

Epoch: Sep 14, 2026, 23:13 UTC

1 65367C 25190S   26257.96784722 -.00011773  00000+0 -34788-3 0  2571
2 65367  53.1595   5.6464 0001133  72.3781 220.7771 15.34393590    17

Volg STARLINK-34946 in realtime met AllMySat

Download on the App Store